Location: Marsån
(66.4167°N, 22.2833°E)
Time: 10:03:41
(UTC+00:00)

SJ 16-02 - Pass Details

Date: 24 February 2024
Orbit: 595 x 607 km, 75.0° (Epoch: 16 April)

Event Time Altitude Azimuth Distance (km) Brightness Sun altitude
Rises 18:41:00 0° 202° (SSW) 2,857 4.8 -20.1°
Reaches altitude 10° 18:43:14 10° 198° (SSW) 1,959 3.9 -20.3°
Maximum altitude 18:47:32 58° 120° (ESE) 713 1.3 -20.7°
Enters shadow 18:47:58 55° 93° (E) 737 1.3 -20.7°
